Orbital Elements at Epoch 2459200.5 (2020-Dec-17.0) TDB
Reference: JPL 15 (heliocentric ecliptic J2000)
Element | Value | Uncertainty (1-sigma) | Units |
e | .02422541666084321 | 5.256e-08 | |
a | 2.664778755636599 | 1.8086e-08 | au |
q | 2.600223379972339 | 1.4344e-07 | au |
i | 3.298354553200513 | 6.0207e-06 | deg |
node | 313.1284188109105 | 0.00012134 | deg |
peri | 129.3832909541333 | 0.00024357 | deg |
M | 218.202981775081 | 0.00020807 | deg |
tp | 2459826.327669528060 (2022-Sep-03.82766953) | 0.00091874 | TDB |
period | 1588.876577592999 4.35 | 1.6175e-05 4.428e-08 | d yr |
n | .2265751821613272 | 2.3066e-09 | deg/d |
Q | 2.729334131300859 | 1.8524e-08 | au |
|
| | Orbit Determination Parameters
Additional Information
|